Location: Hamburg
(53.5500°N, 10.0000°E)
Time: 01:29:01
(UTC+02:00)

Daily predictions for brighter satellites

Satellite Brightness Start Highest point End
(mag) Time Altitude Azimuth Time Altitude Azimuth Time Altitude Azimuth
USA 234 3.6 00:05:54 40° S 00:07:20 46° SW 00:13:37 10° WNW
DELTA 2 DEB (DPAF) 4.2 00:08:26 61° E 00:08:47 63° ENE 00:13:14 10° N
Iridium 51 4.3 00:10:00 84° SW 00:10:05 86° W 00:14:35 10° N
Cosmos 921 Rocket 3.1 00:11:56 64° ENE 00:11:56 64° ENE 00:15:53 10° NNE
Sich 1 Rocket 3.5 00:07:58 10° NNW 00:12:36 87° WSW 00:12:55 78° S
SL-16 R/B 2.7 00:09:45 16° SW 00:14:17 58° NW 00:19:54 10° NNE
Cosmos 1459 Rocket 4.4 00:16:27 42° ESE 00:17:38 47° E 00:23:27 10° NNE
Cosmos 1452 Rocket 3.8 00:17:26 35° SW 00:19:34 64° WNW 00:24:49 10° NNE
GEOS 3 Rocket 4.4 00:15:52 10° NE 00:21:06 52° NNW 00:26:16 10° WSW
Cosmos 1934 Rocket 4.4 00:18:30 31° SW 00:21:19 57° WNW 00:27:18 10° N
Meteor 1-27 Rocket 4.2 00:22:44 42° ESE 00:23:32 45° E 00:29:02 10° NNE
CZ-4 R/B 3.8 00:21:14 10° NNE 00:26:03 71° ESE 00:26:17 69° SE
Cosmos 1943 Rocket 2.1 00:21:18 10° NW 00:26:47 67° WSW 00:27:34 59° SSW
Cosmos 1153 Rocket 4.5 00:27:17 51° S 00:29:05 86° E 00:35:32 10° NNE
BREEZE M DEB (TANK) 3.3 00:23:04 10° W 00:31:08 51° SW 00:31:08 51° SW
Okean 2 Rocket 3.0 00:27:49 10° N 00:32:15 76° ENE 00:32:15 76° ENE
CZ-2C R/B 4.3 00:36:29 24° WSW 00:37:22 26° W 00:41:23 10° NW
Cosmos 2061 Rocket 4.3 00:37:06 47° SE 00:38:29 56° E 00:44:46 10° NNE
Cosmos 1656 Rocket 3.7 00:33:52 10° NNW 00:39:37 77° ENE 00:40:51 56° SE
Cosmos 1603 3.6 00:39:28 55° SW 00:40:47 88° WNW 00:46:27 10° NNE
Cosmos 1782 3.3 00:42:21 53° WNW 00:42:21 53° WNW 00:46:05 10° N
Cosmos 1782 Rocket 3.9 00:37:45 10° NNW 00:42:09 57° W 00:42:09 57° W
Cosmos 1802 Rocket 4.1 00:42:23 51° SE 00:43:33 59° E 00:49:38 10° NNE
Cosmos 2263 4.5 00:39:40 10° NW 00:45:06 50° WSW 00:45:37 49° SW
Cosmos 1536 3.2 00:42:12 10° N 00:45:41 61° NNE 00:45:41 61° NNE
Cosmos 2100 Rocket 4.0 00:44:48 55° SSE 00:46:16 76° E 00:52:40 10° NNE
Cosmos 1943 3.1 00:46:25 63° SSE 00:46:57 67° ESE 00:52:37 10° NE
Mayak -0.8 00:44:30 10° NNE 00:48:05 54° ENE 00:48:05 54° ENE
Cosmos 2369 Rocket 3.0 00:44:08 10° NW 00:49:20 37° WSW 00:49:52 36° WSW
CZ-4B R/B 3.4 00:44:53 10° NNE 00:49:31 60° E 00:49:31 60° E
Cosmos 2151 Rocket 3.6 00:50:16 10° N 00:54:45 73° ENE 00:54:45 73° ENE
SeaSat 1 2.6 00:56:17 57° WSW 00:56:17 57° WSW 01:01:11 10° NW
Meteor 1-5 Rocket 3.9 00:51:41 10° NNW 00:57:02 84° W 00:57:38 71° S
Cosmos 2344 3.8 00:51:12 13° SW 00:58:13 80° NW 01:07:37 10° NE
Meteor 2-12 Rocket 4.4 00:57:15 57° SSE 00:58:19 69° E 01:04:21 10° NNE
Cosmos 2221 Rocket 3.6 00:59:05 85° N 00:59:05 85° N 01:03:34 10° N
Cosmos 1461 3.5 00:55:20 10° NW 00:59:34 57° W 00:59:34 57° W
RESURS DK-1 4.1 00:59:04 10° NW 01:01:30 24° W 01:01:30 24° W
Okean 1-7 3.2 01:03:31 65° WNW 01:03:31 65° WNW 01:07:39 10° N
Cosmos 1606 4.4 01:06:04 27° WNW 01:06:19 27° WNW 01:09:42 10° N
Cosmos 1302 Rocket 4.2 01:08:14 53° ESE 01:08:14 53° ESE 01:13:15 10° NNE
CZ-2C R/B 3.6 01:05:17 10° N 01:10:12 40° WNW 01:12:13 29° WSW
Cosmos 1174 4.5 01:11:49 51° ENE 01:11:49 51° ENE 01:14:45 10° NE
Cosmos 1674 Rocket 4.5 01:12:20 38° ENE 01:12:20 38° ENE 01:16:03 10° NNE
Cosmos 1703 Rocket 4.4 01:12:53 41° W 01:13:05 41° WNW 01:17:13 10° N
USA 267 3.3 01:06:34 10° ENE 01:13:07 79° NNW 01:19:40 10° WSW
CZ-4C R/B 2.3 01:11:30 47° WSW 01:13:14 81° NW 01:19:43 10° NE
Lacrosse 5 3.4 01:13:21 10° WNW 01:15:52 23° W 01:15:52 23° W
H-2A R/B 3.1 01:20:55 38° W 01:20:55 38° W 01:24:53 10° NNW
deb Chang Zheng 4 3.6 01:17:20 10° NNE 01:21:20 73° NE 01:21:20 73° NE
ALOS 2 3.7 01:24:35 34° W 01:24:35 34° W 01:28:13 10° NNW
ATLAS CENTAUR R/B 4.1 01:23:10 10° NW 01:26:00 19° N 01:28:58 10° NE
Okean 3 4.2 01:26:34 45° ENE 01:26:34 45° ENE 01:30:19 10° NNE
Lacrosse 4 Rocket 3.8 01:23:28 10° NNW 01:27:02 23° NNE 01:30:37 10° E
ATLAS 5 CENTAUR R/B 3.4 01:21:59 10° WNW 01:26:36 30° WSW 01:26:36 30° WSW
Cosmos 1725 Rocket 3.9 01:25:52 57° SSE 01:27:08 75° E 01:33:19 10° NNE
Cosmos 2173 Rocket 4.2 01:26:15 48° SW 01:27:54 65° WNW 01:34:14 10° N
Cosmos 1271 Rocket 4.2 01:27:53 10° NNW 01:30:33 29° WNW 01:30:33 29° WNW
COBE Rocket 4.4 01:27:37 10° N 01:32:21 49° WNW 01:33:01 45° W
Cosmos 1378 Rocket 4.4 01:33:31 40° E 01:33:31 40° E 01:37:30 10° NNE
Cosmos 1331 Rocket 4.2 01:32:43 55° WSW 01:33:40 66° WNW 01:38:57 10° NNE
USA 32 4.2 01:29:37 10° N 01:34:53 63° E 01:35:41 55° ESE
Cosmos 1900 4.4 01:30:50 10° NW 01:35:13 59° W 01:35:13 59° W
Cosmos 2016 Rocket 4.0 01:40:27 52° SW 01:41:53 70° WNW 01:48:02 10° N
Cosmos 968 Rocket 3.5 01:37:20 10° NNW 01:42:36 77° ENE 01:43:29 61° SE
CZ-4B R/B 3.0 01:43:25 32° ENE 01:43:25 32° ENE 01:46:20 10° N
Tsikada Rocket 4.1 01:41:43 10° NNW 01:47:50 63° W 01:49:03 52° SW
Cosmos 1503 Rocket 4.1 01:43:29 10° NNW 01:48:38 57° WSW 01:48:38 57° WSW
ADEOS Rocket 3.2 01:43:57 10° NNE 01:51:13 81° WNW 01:53:17 48° SSW
Cosmos 1500 4.3 01:50:00 10° NNW 01:52:37 37° NW 01:52:37 37° NW
MOS 1 Rocket 4.0 01:55:01 10° NNE 01:59:20 41° E 01:59:41 41° ESE
Meteor 1-12 Rocket 4.2 01:54:06 10° NNW 01:59:47 79° ENE 02:01:08 54° SSE
Okean 1 Rocket 3.3 01:56:32 10° NNW 02:00:45 62° WNW 02:00:45 62° WNW
Okean 1 3.6 02:05:21 62° ENE 02:05:21 62° ENE 02:08:57 10° NNE
Geosat 3.9 02:01:09 10° NNE 02:06:13 84° WNW 02:06:58 65° SW
Cosmos 1975 3.0 02:03:57 10° NNW 02:07:35 67° NW 02:07:35 67° NW
Cosmos 1943 Rocket 4.2 02:07:03 10° WNW 02:09:05 13° W 02:09:05 13° W
Iridium 2 4.3 02:11:30 52° NNW 02:11:30 52° NNW 02:14:38 10° N
Cosmos 1666 3.1 02:08:22 10° NNW 02:11:29 59° NNW 02:11:29 59° NNW
Cosmos 1812 3.6 02:13:10 41° NW 02:13:10 41° NW 02:16:28 10° N
Meteor 1-18 Rocket 4.1 02:12:49 60° S 02:13:54 84° E 02:19:37 10° NNE
PSLV R/B 3.6 02:10:27 10° NNE 02:14:49 65° ESE 02:14:51 65° ESE
Cosmos 1689 Rocket 3.7 02:20:19 37° N 02:20:19 37° N 02:22:23 10° N
Cosmos 1743 3.0 02:15:35 10° NNW 02:18:57 62° NW 02:18:57 62° NW
Mayak 0.6 02:20:48 10° N 02:23:57 21° WNW 02:24:43 20° WNW
H-2A R/B 4.3 02:22:11 10° NE 02:25:28 22° E 02:26:27 20° ESE
Cosmos 1455 Rocket 3.2 02:21:46 10° N 02:26:09 65° ENE 02:26:42 58° ESE
Cosmos 1975 Rocket 3.1 02:26:01 64° SE 02:26:20 67° E 02:30:46 10° NNE
COSMOS 2406 3.3 02:25:17 51° SSE 02:26:25 62° ESE 02:32:05 10° NE
Cosmos 2278 3.9 02:22:13 10° NNW 02:27:53 70° NE 02:31:20 24° SE
Cosmos 1980 Rocket 3.4 02:30:27 10° NNW 02:35:47 42° NE 02:41:06 10° ESE
Meteor 1-19 Rocket 4.4 02:34:27 45° SSE 02:36:08 67° E 02:41:54 10° NNE
SL-16 R/B 2.9 02:34:19 21° SE 02:38:32 63° ENE 02:44:44 10° NNW
Cosmos 1697 Rocket 3.1 02:33:51 10° NNW 02:39:31 63° NE 02:44:38 13° SE
Landsat 5 3.8 02:41:39 56° WSW 02:41:41 56° W 02:46:11 10° NNW
CZ-2D R/B 3.6 02:37:18 10° NNE 02:42:01 29° E 02:44:41 20° SE
Spot 2 4.3 02:40:04 10° NNE 02:44:42 79° ESE 02:45:35 59° S
Cosmos 967 Rocket 4.4 02:38:17 10° NW 02:44:48 82° SW 02:49:42 18° SE
SL-16 R/B 4.4 02:40:13 10° NNW 02:44:58 26° NE 02:49:40 10° E
SL-24 R/B 4.5 02:42:00 10° NNE 02:47:41 86° WNW 02:48:55 54° SSW
Cosmos 1992 Rocket 4.0 02:46:52 51° SW 02:48:07 72° WNW 02:53:23 10° NNE
Cosmos 1544 Rocket 3.3 02:43:56 10° NNW 02:48:18 79° W 02:48:37 73° SSW
Meteor 2-20 Rocket 4.4 02:43:05 10° NNW 02:49:08 70° W 02:51:03 44° SSW
Cosmos 2082 Rocket 3.8 02:47:39 19° SE 02:50:02 25° ESE 02:54:32 10° NE
Cosmos 1867 3.5 02:45:01 10° NW 02:50:33 88° NE 02:55:39 12° SE
Cosmos 1464 Rocket 3.9 02:48:18 42° S 02:50:35 86° E 02:56:55 10° NNE
Cosmos 2233 Rocket 4.5 02:51:14 35° WSW 02:53:13 47° WNW 02:59:09 10° N
USA 267 3.6 02:49:28 10° E 02:55:58 67° N 03:02:28 10° WNW
Cosmos 1536 Rocket 4.2 02:57:25 37° SE 02:58:33 47° E 03:02:44 10° NNE
ARIANE 5 R/B 4.2 02:54:29 10° NE 02:58:53 26° E 03:02:15 15° SE
Cosmos 909 Rocket 3.9 02:52:56 10° NW 02:59:16 68° SW 03:03:37 21° SSE
Cosmos 2322 Rocket 4.2 02:57:28 10° NNW 03:02:24 29° NE 03:07:18 10° E
CZ-4C R/B 3.7 02:57:10 10° W 03:02:38 39° NNW 03:08:59 10° NE
Cosmos 1242 Rocket 3.1 02:59:08 10° NNW 03:02:06 48° WNW 03:02:06 48° WNW
Exosat Rocket 3.9 02:57:36 10° NNW 03:03:04 84° WSW 03:09:42 13° SSE
Cosmos 1777 Rocket 4.0 02:59:11 10° NNW 03:04:24 62° WSW 03:05:40 47° SSW
Meteor 1-13 Rocket 4.2 03:02:52 43° S 03:04:49 88° ESE 03:10:35 10° NNE
ATLAS CENTAUR R/B 4.1 03:03:11 10° NW 03:06:18 20° NNE 03:09:34 10° ENE
Lacrosse 4 Rocket 1.5 03:01:53 10° NW 03:06:20 87° NE 03:08:40 28° SE
MOZ.5/SAFIR/RUBIN 5/SL-8 4.3 03:05:37 21° SE 03:08:38 58° ENE 03:13:19 10° N
Nadezhda 4 Rocket 3.9 03:03:44 10° NNW 03:09:53 79° W 03:12:48 33° S
Iridium 4 Rocket 4.1 03:07:54 24° SE 03:09:57 40° E 03:14:11 10° NNE
SL-08 R/B 3.2 03:11:43 41° S 03:13:24 81° WSW 03:18:20 10° NNW
Cosmos 1513 Rocket 4.4 03:11:33 39° SSW 03:13:59 75° WNW 03:20:05 10° N
Gblst 52 Del rocket 4.1 03:11:59 28° WSW 03:15:07 75° S 03:21:22 10° E
Cosmos 1656 3.7 03:09:49 10° NW 03:15:26 59° WSW 03:17:40 35° S
CZ-4B R/B 3.3 03:16:52 21° WNW 03:16:52 21° WNW 03:18:41 10° NW
Cosmos 1891 Rocket 4.4 03:13:58 38° SSW 03:16:21 73° WNW 03:22:26 10° N
Cosmos 2369 3.8 03:13:14 10° NW 03:18:45 54° WSW 03:20:40 37° SSW
Cosmos 2084 Rocket 3.6 03:18:03 49° S 03:18:45 56° SE 03:22:51 10° NE
Cosmos 1340 Rocket 3.4 03:18:08 38° SE 03:19:12 50° E 03:23:03 10° NNE
IRS-1D 4.3 03:15:57 10° NNE 03:20:55 47° E 03:23:50 23° SSE
NPP 3.7 03:18:31 10° NNE 03:23:57 79° ESE 03:26:24 34° S
Resurs 1-4 Rocket 2.4 03:20:48 10° NNE 03:26:01 60° ESE 03:28:47 28° S
IRS-P3 4.1 03:24:25 10° NNE 03:29:49 82° ESE 03:32:22 33° S
Cosmos 1833 Rocket 3.3 03:27:31 27° S 03:30:19 49° ESE 03:35:46 10° NE
AQUA 3.8 03:27:47 10° NNE 03:32:35 78° ESE 03:34:39 34° S
PSLV R/B 3.8 03:35:56 42° S 03:37:10 70° WSW 03:41:15 10° NNW
MOS 1 Rocket 4.3 03:33:31 10° N 03:37:31 32° WNW 03:39:00 26° W
Cosmos 2360 4.1 03:32:48 10° NNW 03:38:33 88° SW 03:44:15 10° SSE
UNK 3.9 03:38:51 39° SSW 03:40:10 51° W 03:44:40 10° NNW
Cosmos 2026 Rocket 4.1 03:36:51 10° N 03:43:18 86° ENE 03:49:19 12° S
Cosmos 44 3.9 03:40:18 10° NW 03:45:22 63° NE 03:50:39 10° ESE
Cosmos 2058 Rocket 4.5 03:41:25 10° N 03:45:34 38° ENE 03:49:43 10° SE
Cosmos 1544 3.4 03:47:01 10° N 03:50:40 66° ENE 03:53:14 18° SSE
Helios 1A Rocket 3.9 03:46:56 10° NNE 03:50:55 43° E 03:53:45 17° SSE
Meteor 1-23 Rocket 4.2 03:48:08 28° SSW 03:51:16 76° WNW 03:57:01 10° NNE
Okean 2 3.3 03:51:24 33° S 03:53:12 87° E 03:57:20 10° NNE
SL-27 R/B 2.8 03:56:39 40° W 03:57:22 47° WNW 04:00:38 10° NNE
Meteor 2-4 Rocket 4.1 03:55:16 28° SW 03:57:44 45° WNW 04:02:55 10° N
Cosmos 1606 Rocket 3.6 03:53:29 10° N 03:57:50 77° ENE 04:01:49 12° SSE
Cosmos 1766 3.9 03:54:21 10° N 03:58:11 54° ENE 04:01:59 10° SSE
Lacrosse 5 rocket 2.5 03:58:56 24° S 04:00:31 31° SE 04:04:09 10° ENE
Cosmos 1066 Rocket 4.5 03:56:33 16° S 04:00:53 65° E 04:06:15 10° NNE
H-2A R/B 2.8 03:57:11 10° N 04:01:16 53° WNW 04:03:03 30° SW
Cosmos 332 Rocket 3.7 03:59:42 30° SW 04:02:06 79° WNW 04:06:57 10° NNE
ERS-1 4.4 03:57:14 10° NNE 04:02:14 85° ESE 04:05:28 22° SSW
Cosmos 371 Rocket 3.3 04:01:28 28° SSW 04:04:01 81° WNW 04:08:54 10° NNE
Cosmos 2195 Rocket 4.5 03:58:03 10° NNW 04:04:10 64° W 04:09:02 16° S
Cosmos 44 Rocket 3.9 03:59:08 10° NW 04:04:11 62° NE 04:09:19 10° ESE
Cosmos 2228 3.6 04:00:10 10° N 04:04:27 58° ENE 04:08:39 10° SSE
CBERS-1 4.3 04:00:25 10° N 04:05:26 56° WNW 04:08:13 26° SW
Cosmos 1655 Rocket 4.1 04:01:33 10° N 04:07:56 88° ENE 04:14:21 10° S
COSMOS 2406 4.3 04:07:20 17° W 04:11:07 35° NW 04:16:23 10° NNE
SJ 16-02 3.4 04:10:02 10° N 04:13:58 30° NE 04:17:54 10° ESE
Cosmos 1092 Rocket 4.5 04:09:10 10° NNW 04:14:57 42° W 04:18:51 20° SSW
Cosmos 1892 Rocket 4.4 04:11:18 10° SSE 04:15:34 49° E 04:19:50 10° NNE
Cosmos 2360 Rocket 3.7 04:11:58 10° NNW 04:17:16 40° NE 04:22:33 10° ESE
Cosmos 1898 Rocket 3.4 04:13:45 10° NNW 04:18:54 65° WSW 04:24:04 10° SSE
Cosmos 1980 Rocket 2.4 04:14:32 10° NW 04:19:55 48° WSW 04:25:17 10° S
Cosmos 2142 Rocket 4.4 04:15:32 17° SSW 04:20:31 80° WNW 04:26:43 10° N
Cosmos 1607 4.0 04:17:20 21° SW 04:21:53 87° SE 04:28:27 10° NE
CZ-2D R/B 2.4 04:17:05 10° N 04:22:25 56° WNW 04:26:01 20° SW
SL-16 R/B 3.4 04:19:23 20° SW 04:22:35 31° W 04:28:06 10° NNW
Cosmos 1697 Rocket 3.5 04:18:18 10° NW 04:23:08 30° WSW 04:26:16 18° SSW
NOSS 2-1 (D) 4.5 04:19:53 10° NW 04:25:17 88° NE 04:32:47 10° SE
Cosmos 1025 Rocket 3.2 04:25:30 22° SW 04:28:00 53° WNW 04:32:13 10° N
Meteor 1-22 Rocket 4.3 04:22:51 10° NNW 04:28:55 72° W 04:34:44 10° S
SL-16 R/B 2.3 04:24:10 10° NNW 04:29:54 85° ENE 04:35:35 10° SSE
Cosmos 1570 Rocket 4.1 04:26:24 16° SSW 04:30:37 81° ESE 04:35:59 10° NNE
Cosmos 1937 Rocket 3.4 04:27:37 10° NNW 04:32:50 67° WSW 04:37:57 10° SSE
Cosmos 2082 Rocket 2.2 04:29:29 19° SW 04:33:37 74° NW 04:39:18 10° NNE
Spot 4 Rocket 4.2 04:29:01 10° N 04:34:08 62° WNW 04:38:09 16° SW
ARIANE 5 R/B 2.7 04:33:12 10° N 04:38:22 60° WNW 04:42:36 15° SW
USA 267 3.3 04:32:19 10° ESE 04:38:54 88° SSW 04:45:30 10° WNW
Cosmos 1356 4.3 04:37:26 21° WSW 04:39:07 34° WNW 04:42:21 10° N
Okean O Rocket 4.4 04:37:03 10° NE 04:39:45 16° E 04:42:25 10° SE
COSMOS 2487 2.4 04:37:31 19° SSW 04:39:58 89° ESE 04:43:31 10° NNE
Cosmos 1733 4.2 04:37:15 10° N 04:41:02 50° ENE 04:44:49 10° SSE
Cosmos 304 Rocket 3.8 04:39:45 15° SSW 04:43:49 89° WNW 04:48:41 10° NNE
Lacrosse 4 Rocket 3.1 04:41:40 10° WNW 04:44:29 17° WSW 04:44:54 16° WSW
UNKNOWN OBJECT B 2.7 04:41:14 10° N 04:45:11 73° WNW 04:48:30 13° SSW
ATLAS CENTAUR R/B 2.6 04:42:03 10° NW 04:46:08 48° NE 04:50:30 10° ESE
Cosmos 2322 Rocket 2.1 04:41:23 10° NNW 04:47:04 80° WSW 04:52:42 10° SSE
Iridium 4 Rocket 4.3 04:47:42 16° WSW 04:50:09 26° WNW 04:53:58 10° NNW
Cosmos 2150 Rocket 4.1 04:45:51 10° NNW 04:51:16 65° WSW 04:56:41 10° SSE
Cosmos 990 Rocket 4.2 04:46:48 10° NW 04:51:45 49° WSW 04:56:42 10° S
Cosmos 468 Rocket 4.1 04:47:15 11° SSW 04:52:28 83° ESE 04:57:49 10° NNE
CZ-4C R/B 4.1 04:46:49 10° NW 04:52:42 38° NNE 04:59:27 10° E
Cosmos 1470 3.6 04:50:23 10° N 04:54:20 54° ENE 04:58:15 10° SSE
ADEOS II 2.2 04:49:52 10° NNE 04:55:10 80° ESE 05:00:26 10° SSW
Cosmos 1340 Rocket 4.4 04:53:45 13° WSW 04:55:59 20° WNW 04:58:58 10° NNW
Cosmos 2298 Rocket 4.2 04:52:22 10° NNW 04:57:33 53° WSW 05:02:42 10° S
Cosmos 2084 Rocket 4.4 04:54:34 11° W 04:58:25 39° NNW 05:02:17 10° NE
Cosmos 1814 Rocket 4.4 04:54:09 10° S 04:59:12 61° ESE 05:04:21 10° NNE
IRS-1D 4.4 04:55:29 10° N 05:00:04 34° WNW 05:04:20 12° WSW
ADEOS 3.7 04:56:51 10° N 05:02:01 63° WNW 05:07:10 10° SSW
Resurs 1-4 Rocket 3.3 05:01:08 10° N 05:05:34 28° WNW 05:09:52 11° WSW
Cosmos 372 Rocket 4.2 05:01:18 10° NNW 05:06:36 76° ENE 05:11:48 10° SSE
Cosmos 1726 Rocket 4.4 05:04:24 10° NNW 05:08:09 29° W 05:11:52 10° SSW
Gbstr 26 Del rocket 4.2 05:01:28 10° WSW 05:09:03 76° S 05:15:19 10° E
NOSS 3-3 (A) 4.5 05:02:24 10° NW 05:09:40 85° SW 05:17:42 10° SE
NOSS 3-3 (C) 4.5 05:02:29 10° NW 05:09:47 85° SW 05:17:48 10° SE
BREEZE-M R/B 4.4 05:08:03 10° W 05:13:43 69° S 05:22:39 10° ESE
CZ-2D R/B 4.0 05:10:23 10° N 05:14:10 40° WNW 05:18:00 10° SW
Cosmos 1833 Rocket 3.4 05:09:12 11° WSW 05:14:24 42° NW 05:19:46 10° NNE
Okean 1-7 Rocket 4.5 05:10:38 11° SW 05:14:36 34° WNW 05:18:45 10° N
USA 161 2.8 05:12:31 10° SSE 05:15:27 46° ENE 05:18:18 10° N
Cosmos 1953 2.3 05:13:08 10° NNW 05:17:14 76° W 05:21:18 10° S
PSLV R/B 3.9 05:13:48 10° NNE 05:18:02 67° ESE 05:22:13 10° S
Cosmos 1842 3.4 05:16:04 10° SSW 05:19:58 59° WNW 05:23:55 10° N
Cosmos 1356 Rocket 4.3 05:17:22 10° SW 05:20:59 31° WNW 05:24:39 10° N
Aureole 2 Rocket 2.7 05:19:13 10° NNW 05:23:12 86° ENE 05:26:57 10° SSE
Cosmos 2058 Rocket 4.0 05:19:38 10° NNW 05:23:27 29° W 05:27:18 10° SSW
Cosmos 1812 Rocket 3.6 05:18:57 10° NNW 05:23:28 81° W 05:27:56 10° S
Cosmos 1707 4.0 05:20:20 10° SSE 05:24:01 43° E 05:27:45 10° NNE
Cosmos 2322 4.0 05:19:40 10° NNW 05:25:25 77° ENE 05:31:09 10° SE
Helios 1A Rocket 4.2 05:22:27 10° N 05:25:59 27° WNW 05:29:30 10° WSW
Cosmos 44 4.1 05:21:49 10° WNW 05:26:27 34° WSW 05:31:12 10° S
Cosmos 1805 4.4 05:27:05 10° NNW 05:30:19 25° W 05:33:33 10° SW
Cosmos 841 Rocket 3.6 05:27:01 10° SSW 05:32:12 82° ESE 05:37:27 10° NNE
ATLAS 3B R/B 3.4 05:27:51 10° SSW 05:34:47 57° SE 05:41:29 10° NE
Cosmos 1602 Rocket 3.5 05:30:33 10° S 05:34:53 86° W 05:39:15 10° N
